Find Kinshachi 3

NORAD ID: 41339 Int'l Des: 2016-012 Owner: NAG/MHIME Country: J operational
LEOCIRCULAR

Current View

Loading 3D Globe...

About Kinshachi 3

Description loading...

Upcoming Passes

Passes for default location (London). Set your location on the main map for personalized predictions.

Altitude History

Loading altitude history...

Two-Line Element Set

1 41339U 16012C 26151.44287468 .00006109 00000-0 28412-3 0 9994
2 41339 31.0045 80.4398 0009275 255.7832 104.1778 15.18401602565655
Epoch: May 31, 2026 • Age: 8 hours

Current Status

Altitude 515.7 km
Velocity 7.61 km/s
Sub-Earth Point 29.98°N, 11.57°E
Launch Date Feb 17, 2016
Age 10.2 years
Type other

Technical Details

Classification Payload
Mass 52.00 kg
Dry Mass 52.00 kg
Total Mass 52.00 kg
Length 0.60 m
Diameter 0.50 m
Span 0.60 m
Shape Box
Manufacturer NAG/MHIME
Phase Status In Orbit
Owner/State NAG/MHIME/J

Most Searched